W1TG-2 Weather Reports


Display with metric or nautical units.
time (UTC)temp
F
wind
direction
speed
MPH
gust
MPH
rain 1hr
in
rain 24hr
in
rain mn
in
humidity
%
barometer
mb
20260508004203 54 0 0.0 0.0 0.00 0.02 0.02 45 1005.9
20260508003604 54 0 0.0 0.0 0.00 0.02 0.02 44 1005.8
20260508003004 55 0 0.0 0.0 0.00 0.02 0.02 44 1005.6
20260508002403 55 273 0.0 1.0 0.00 0.02 0.02 44 1005.7
20260508001804 56 273 0.0 1.0 0.00 0.02 0.02 43 1005.6
20260508001203 56 0 0.0 0.0 0.00 0.02 0.02 43 1005.5
20260508000603 56 0 0.0 0.0 0.00 0.02 0.02 41 1005.4
20260508000003 57 0 0.0 0.0 0.00 0.02 0.02 41 1005.4
20260507235404 57 273 0.0 3.0 0.00 0.02 0.02 40 1005.3
20260507234803 57 273 0.0 3.0 0.00 0.02 0.02 39 1005.4
20260507234203 58 273 0.0 2.0 0.00 0.03 0.02 39 1005.3
20260507233604 58 273 0.0 8.0 0.00 0.04 0.02 38 1005.2
20260507233004 58 273 0.0 8.0 0.00 0.07 0.02 38 1005.0
20260507232403 59 273 0.0 6.0 0.00 0.07 0.02 37 1005.0
20260507231803 59 272 0.0 7.0 0.00 0.08 0.02 36 1005.0
20260507231204 60 271 0.0 7.0 0.00 0.09 0.02 36 1005.0
20260507230604 60 271 1.0 7.0 0.00 0.09 0.02 35 1004.9
20260507230004 60 271 0.0 6.0 0.00 0.11 0.02 36 1004.9
20260507225403 60 271 1.0 6.0 0.00 0.12 0.02 35 1004.8
20260507224804 60 271 1.0 4.0 0.00 0.13 0.02 35 1004.8
20260507224203 61 271 1.0 8.0 0.00 0.14 0.02 33 1004.7
20260507223603 61 266 1.0 8.0 0.00 0.15 0.02 34 1004.5
20260507223004 61 246 1.0 7.0 0.00 0.15 0.02 35 1004.4
20260507222404 62 246 1.0 8.0 0.00 0.17 0.02 35 1004.5
20260507221803 62 246 0.0 7.0 0.00 0.18 0.02 35 1004.4
20260507221203 62 246 0.0 5.0 0.00 0.19 0.02 34 1004.2
20260507220604 62 245 1.0 10.0 0.00 0.19 0.02 33 1004.2
20260507220004 62 245 1.0 10.0 0.00 0.19 0.02 34 1004.1
20260507215403 63 245 1.0 8.0 0.00 0.19 0.02 34 1004.0
20260507214804 63 255 1.0 9.0 0.00 0.19 0.02 33 1004.0
20260507214204 63 271 1.0 8.0 0.00 0.20 0.02 37 1003.9
20260507213603 63 271 1.0 8.0 0.00 0.20 0.02 34 1004.1
20260507213003 63 272 0.0 7.0 0.00 0.20 0.02 33 1003.8
20260507212404 64 262 1.0 11.0 0.00 0.20 0.02 33 1003.9
20260507211804 64 276 2.0 11.0 0.00 0.21 0.02 33 1003.9
20260507211203 64 328 1.0 7.0 0.00 0.21 0.02 34 1003.9
20260507210603 64 320 1.0 14.0 0.00 0.22 0.02 35 1003.7
20260507210004 64 317 1.0 14.0 0.00 0.23 0.02 34 1003.9
20260507205403 64 330 0.0 4.0 0.00 0.23 0.02 34 1003.8
20260507204803 65 335 0.0 9.0 0.00 0.24 0.02 35 1003.7
20260507204204 64 336 1.0 9.0 0.00 0.24 0.02 35 1003.8
20260507203603 64 336 1.0 8.0 0.00 0.25 0.02 36 1003.6
20260507203003 64 344 1.0 5.0 0.00 0.26 0.02 34 1003.7
20260507202404 64 327 1.0 13.0 0.00 0.28 0.02 35 1003.7
20260507201804 64 287 0.0 6.0 0.00 0.30 0.02 35 1003.7
20260507201203 64 287 1.0 6.0 0.00 0.32 0.02 36 1003.7
20260507200603 65 290 1.0 7.0 0.00 0.32 0.02 37 1003.8
20260507200004 64 278 1.0 8.0 0.00 0.32 0.02 37 1003.8
20260507195404 64 284 1.0 10.0 0.00 0.33 0.02 37 1003.8
20260507194803 64 269 1.0 10.0 0.00 0.33 0.02 36 1004.0
20260507194203 64 252 1.0 10.0 0.00 0.34 0.02 36 1004.0
20260507193604 64 252 1.0 5.0 0.00 0.34 0.02 37 1004.0
20260507193003 64 251 1.0 9.0 0.00 0.35 0.02 35 1004.0
20260507192403 64 251 1.0 10.0 0.00 0.35 0.02 38 1004.1
20260507191803 64 253 1.0 10.0 0.00 0.36 0.02 35 1004.2
20260507191204 64 262 1.0 8.0 0.00 0.36 0.02 38 1004.2
20260507190603 64 282 1.0 8.0 0.00 0.36 0.02 36 1004.2
20260507190004 64 257 1.0 9.0 0.00 0.36 0.02 35 1004.4
20260507185404 64 247 1.0 10.0 0.00 0.36 0.02 36 1004.2
20260507184804 64 284 1.0 10.0 0.00 0.36 0.02 38 1004.3
20260507184203 64 316 1.0 9.0 0.00 0.36 0.02 38 1004.4
20260507183603 64 265 1.0 9.0 0.00 0.36 0.02 36 1004.4
20260507183004 64 208 1.0 8.0 0.00 0.36 0.02 36 1004.6
20260507182403 64 209 2.0 13.0 0.00 0.36 0.02 35 1004.5
20260507181803 64 220 1.0 13.0 0.00 0.36 0.02 37 1004.5
20260507181204 64 229 2.0 13.0 0.00 0.36 0.02 39 1004.5
20260507180604 63 239 2.0 13.0 0.00 0.36 0.02 39 1004.5
20260507180004 63 270 1.0 11.0 0.00 0.36 0.02 37 1004.6
20260507175403 63 282 2.0 15.0 0.00 0.36 0.02 41 1004.5
20260507174804 63 247 2.0 15.0 0.00 0.36 0.02 41 1004.4
20260507174204 63 249 1.0 9.0 0.00 0.36 0.02 39 1004.4
20260507173603 63 249 1.0 9.0 0.00 0.36 0.02 43 1004.4
20260507173003 63 249 1.0 9.0 0.00 0.36 0.02 42 1004.6
20260507172404 63 248 1.0 9.0 0.00 0.36 0.02 40 1004.6
20260507171804 63 243 2.0 9.0 0.00 0.36 0.02 43 1004.7
20260507171203 63 235 1.0 9.0 0.00 0.36 0.02 44 1004.8
20260507170603 63 231 1.0 10.0 0.00 0.36 0.02 48 1004.8
20260507170004 62 231 1.0 10.0 0.00 0.36 0.02 53 1004.9
20260507165403 62 232 1.0 7.0 0.00 0.36 0.02 57 1004.9
20260507164803 61 230 2.0 7.0 0.00 0.36 0.02 55 1004.9
20260507164204 60 227 1.0 7.0 0.00 0.36 0.02 55 1005.1
20260507163604 61 224 1.0 8.0 0.00 0.36 0.02 55 1005.1
20260507163003 62 225 1.0 8.0 0.00 0.36 0.02 54 1005.1
20260507162403 62 225 2.0 7.0 0.00 0.36 0.02 56 1005.2
20260507161804 61 224 2.0 10.0 0.00 0.36 0.02 57 1005.2
20260507161204 61 222 1.0 7.0 0.00 0.36 0.02 55 1005.3
20260507160603 61 221 1.0 10.0 0.00 0.36 0.02 55 1005.3
20260507160003 61 210 1.0 10.0 0.00 0.36 0.02 55 1005.3
20260507155404 61 192 1.0 5.0 0.00 0.36 0.02 56 1005.3
20260507154803 60 192 0.0 5.0 0.00 0.36 0.02 55 1005.5
20260507154203 60 193 0.0 6.0 0.00 0.36 0.02 55 1005.4
20260507153604 61 192 0.0 6.0 0.00 0.36 0.02 53 1005.6
20260507153003 61 192 1.0 6.0 0.00 0.36 0.02 55 1005.6
20260507152403 60 191 1.0 9.0 0.00 0.36 0.02 54 1005.7
20260507151803 60 191 0.0 8.0 0.00 0.36 0.02 56 1005.9
20260507151204 61 191 0.0 8.0 0.00 0.36 0.02 54 1006.0
20260507150603 61 191 0.0 5.0 0.00 0.36 0.02 56 1005.9
20260507150003 60 191 1.0 7.0 0.00 0.36 0.02 56 1006.1
20260507145404 60 191 1.0 7.0 0.00 0.36 0.02 57 1006.1
20260507144804 60 191 1.0 5.0 0.00 0.36 0.02 55 1006.0
20260507144203 60 191 1.0 5.0 0.00 0.36 0.02 58 1006.2
20260507143603 60 191 0.0 6.0 0.00 0.36 0.02 56 1006.0
20260507143004 60 190 0.0 4.0 0.00 0.36 0.02 57 1006.0
20260507142403 60 190 0.0 4.0 0.00 0.36 0.02 57 1006.0
20260507141803 60 191 1.0 4.0 0.00 0.36 0.02 60 1005.9
20260507141204 59 191 0.0 4.0 0.00 0.36 0.02 59 1005.8
20260507140604 59 191 0.0 4.0 0.00 0.36 0.02 61 1005.9
20260507140003 59 191 0.0 3.0 0.00 0.36 0.02 63 1005.8
20260507135404 58 191 0.0 4.0 0.00 0.36 0.02 63 1005.9
20260507134803 58 191 0.0 4.0 0.00 0.36 0.02 63 1006.0
20260507134203 58 191 0.0 4.0 0.00 0.36 0.02 64 1006.1
20260507133603 57 191 0.0 4.0 0.00 0.36 0.02 63 1006.3
20260507133004 57 191 0.0 5.0 0.00 0.36 0.02 65 1006.5
20260507132403 57 191 0.0 5.0 0.00 0.36 0.02 65 1006.5
20260507131803 57 191 0.0 5.0 0.00 0.36 0.02 66 1006.6
20260507131203 56 191 0.0 2.0 0.00 0.36 0.02 67 1006.6
20260507130604 56 191 0.0 5.0 0.00 0.36 0.02 70 1006.6
20260507130004 55 191 0.0 7.0 0.00 0.36 0.02 71 1006.8
20260507125403 55 191 1.0 7.0 0.00 0.36 0.02 70 1006.7
20260507124804 54 191 0.0 5.0 0.00 0.36 0.02 71 1006.8
20260507124204 54 191 0.0 5.0 0.00 0.36 0.02 70 1006.8
20260507123603 54 191 0.0 7.0 0.00 0.36 0.02 73 1006.8
20260507123003 54 191 0.0 7.0 0.00 0.36 0.02 73 1006.9
20260507122404 53 190 0.0 3.0 0.00 0.36 0.02 75 1007.0
20260507121803 53 191 0.0 2.0 0.00 0.36 0.02 77 1007.1
20260507121203 52 191 0.0 2.0 0.00 0.36 0.02 77 1007.1
20260507120603 52 191 0.0 2.0 0.00 0.36 0.02 81 1007.1
20260507120004 51 191 0.0 3.0 0.00 0.36 0.02 83 1007.0
20260507115403 50 191 0.0 2.0 0.00 0.36 0.02 84 1007.2
20260507114803 49 191 0.0 3.0 0.00 0.36 0.02 85 1007.2
20260507114204 49 191 0.0 4.0 0.00 0.36 0.02 86 1006.8
20260507113604 49 191 0.0 4.0 0.00 0.36 0.02 86 1006.6
20260507113004 49 191 0.0 1.0 0.00 0.36 0.02 87 1006.7
20260507112403 48 190 0.0 2.0 0.00 0.36 0.02 87 1006.7
20260507111804 48 191 0.0 2.0 0.00 0.36 0.02 88 1006.8
20260507111203 48 191 0.0 2.0 0.00 0.36 0.02 88 1006.9
20260507110603 48 190 0.0 2.0 0.00 0.36 0.02 89 1006.9
20260507110004 48 190 0.0 2.0 0.00 0.36 0.02 89 1006.8
20260507105404 48 191 0.0 2.0 0.00 0.36 0.02 89 1006.4
20260507104803 48 0 0.0 0.0 0.00 0.36 0.02 90 1006.4
20260507104203 48 191 0.0 1.0 0.00 0.36 0.02 90 1006.4
20260507103604 48 191 0.0 2.0 0.00 0.36 0.02 90 1006.3
20260507103003 48 191 0.0 2.0 0.00 0.36 0.02 91 1006.2
20260507102403 48 191 0.0 1.0 0.00 0.36 0.02 91 1006.6
20260507101804 48 0 0.0 0.0 0.00 0.36 0.02 92 1006.5
20260507101204 48 191 0.0 1.0 0.00 0.36 0.02 91 1006.4
20260507100603 48 191 0.0 3.0 0.00 0.36 0.02 92 1006.2
20260507100003 48 191 0.0 3.0 0.00 0.36 0.02 91 1006.7
20260507095404 48 191 0.0 4.0 0.00 0.36 0.02 92 1006.3
20260507094804 48 191 0.0 4.0 0.00 0.36 0.02 92 1006.5
20260507094203 48 191 0.0 3.0 0.00 0.36 0.02 92 1006.5
20260507093603 48 190 0.0 2.0 0.00 0.36 0.02 92 1006.3
20260507093004 48 191 0.0 3.0 0.00 0.36 0.02 92 1006.5
20260507092404 48 191 0.0 6.0 0.00 0.36 0.02 93 1006.5
20260507091803 48 190 0.0 6.0 0.00 0.36 0.02 93 1006.5
20260507091203 48 191 0.0 3.0 0.00 0.36 0.02 93 1006.3
20260507090604 48 191 0.0 3.0 0.01 0.36 0.02 93 1006.2
20260507090005 48 191 0.0 2.0 0.01 0.36 0.02 93 1006.1
20260507085403 48 191 0.0 2.0 0.01 0.36 0.02 93 1006.1
20260507084803 49 0 0.0 0.0 0.01 0.36 0.02 92 1006.3
20260507084204 49 191 0.0 1.0 0.01 0.36 0.02 92 1006.1
20260507083604 49 191 0.0 4.0 0.01 0.36 0.02 92 1005.8
20260507083004 49 190 0.0 2.0 0.02 0.36 0.02 92 1006.1
20260507082403 49 191 0.0 2.0 0.02 0.36 0.02 91 1005.9
20260507081804 49 191 0.0 2.0 0.02 0.36 0.02 91 1005.8
20260507081203 50 191 0.0 3.0 0.02 0.36 0.02 90 1005.7
20260507080603 50 190 0.0 5.0 0.01 0.35 0.01 89 1005.8
20260507080004 50 191 0.0 3.0 0.01 0.35 0.01 89 1005.9
20260507075404 50 191 0.0 3.0 0.01 0.35 0.01 89 1006.0
20260507074803 50 191 0.0 2.0 0.01 0.35 0.01 89 1006.0
20260507074203 50 191 0.0 5.0 0.01 0.35 0.01 89 1005.5
20260507073604 51 191 0.0 5.0 0.01 0.35 0.01 88 1005.6
20260507073004 51 191 0.0 5.0 0.00 0.34 0.00 89 1005.2
20260507072403 51 191 0.0 3.0 0.00 0.34 0.00 89 1005.4
20260507071803 51 191 0.0 3.0 0.00 0.34 0.00 90 1005.5
20260507071204 51 191 0.0 3.0 0.00 0.34 0.00 90 1005.6
20260507070603 51 191 0.0 5.0 0.00 0.34 0.00 91 1005.4
20260507070006 52 191 0.0 6.0 0.00 0.34 0.00 91 1005.4
20260507065404 52 191 0.0 6.0 0.00 0.34 0.00 91 1005.3
20260507064804 52 191 0.0 2.0 0.00 0.34 0.00 91 1005.3
20260507064203 52 191 0.0 2.0 0.00 0.34 0.00 91 1005.1
20260507063603 52 191 0.0 1.0 0.00 0.34 0.00 91 1005.0
20260507063004 52 191 0.0 1.0 0.00 0.34 0.00 90 1005.0
20260507062403 52 190 0.0 5.0 0.00 0.34 0.00 90 1005.2
20260507061803 52 191 0.0 3.0 0.00 0.34 0.00 89 1005.1
20260507061204 52 191 0.0 4.0 0.00 0.34 0.00 90 1005.2
20260507060604 52 191 0.0 4.0 0.00 0.34 0.00 89 1005.4
20260507060003 52 191 0.0 6.0 0.00 0.34 0.00 89 1005.2
20260507055403 52 191 0.0 6.0 0.00 0.34 0.00 89 1005.4
20260507054804 52 189 0.0 6.0 0.00 0.34 0.00 90 1005.4
20260507054203 52 189 0.0 6.0 0.00 0.34 0.00 90 1005.4
20260507053603 52 188 0.0 5.0 0.00 0.34 0.00 90 1005.4
20260507053004 52 188 0.0 6.0 0.00 0.34 0.00 91 1005.5
20260507052404 52 188 0.0 4.0 0.00 0.34 0.00 91 1005.5
20260507051803 52 188 0.0 4.0 0.00 0.34 0.00 91 1005.4
20260507051203 53 186 1.0 6.0 0.00 0.34 0.00 91 1005.5
20260507050604 53 185 0.0 5.0 0.00 0.34 0.00 92 1005.4
20260507050003 53 184 0.0 3.0 0.00 0.34 0.00 93 1005.4
20260507045403 53 185 0.0 3.0 0.00 0.34 0.00 93 1005.1
20260507044803 54 185 0.0 5.0 0.00 0.34 0.00 93 1005.1
20260507044204 54 184 0.0 5.0 0.00 0.34 0.00 94 1005.2
20260507043603 54 185 0.0 5.0 0.00 0.34 0.00 94 1005.4
20260507043003 54 184 0.0 6.0 0.00 0.34 0.00 94 1005.4
20260507042403 55 185 0.0 3.0 0.00 0.34 0.00 95 1005.4
20260507041804 55 184 0.0 5.0 0.00 0.34 0.00 95 1005.5
20260507041203 56 184 0.0 6.0 0.00 0.34 0.00 96 1005.3
20260507040603 56 184 0.0 3.0 0.00 0.34 0.00 96 1005.1
20260507040004 57 184 0.0 1.0 0.00 0.34 0.00 97 1005.0
20260507035404 57 184 0.0 3.0 0.00 0.34 0.34 97 1004.9
20260507034803 57 184 0.0 2.0 0.00 0.34 0.34 97 1004.7
20260507034203 57 184 0.0 3.0 0.00 0.34 0.34 97 1004.7
20260507033604 58 185 0.0 5.0 0.00 0.34 0.34 97 1004.7
20260507033004 59 185 0.0 5.0 0.00 0.34 0.34 96 1004.5
20260507032403 60 184 0.0 5.0 0.00 0.34 0.34 97 1004.4
20260507031803 60 184 0.0 2.0 0.00 0.34 0.34 97 1004.3
20260507031204 60 184 0.0 1.0 0.00 0.34 0.34 97 1004.3
20260507030603 60 184 1.0 7.0 0.00 0.34 0.34 97 1004.2
20260507030003 60 184 0.0 7.0 0.00 0.34 0.34 97 1004.2
20260507025404 59 184 0.0 4.0 0.00 0.34 0.34 97 1004.2
20260507024804 59 185 0.0 5.0 0.00 0.34 0.34 97 1004.3
20260507024203 59 184 1.0 5.0 0.00 0.34 0.34 97 1004.3
20260507023603 59 185 1.0 8.0 0.00 0.34 0.34 97 1004.1
20260507023004 59 184 0.0 8.0 0.00 0.34 0.34 97 1004.3
20260507022404 59 184 0.0 3.0 0.00 0.34 0.34 97 1004.3
20260507021803 59 184 0.0 6.0 0.00 0.34 0.34 97 1004.1
20260507021203 59 184 1.0 6.0 0.00 0.34 0.34 97 1004.2
20260507020604 59 184 1.0 4.0 0.00 0.34 0.34 98 1004.3
20260507020004 59 185 1.0 4.0 0.00 0.34 0.34 98 1004.5
20260507015403 59 184 0.0 6.0 0.00 0.34 0.34 98 1004.5
20260507014803 59 184 0.0 6.0 0.00 0.34 0.34 98 1004.5
20260507014204 59 184 1.0 7.0 0.00 0.34 0.34 98 1004.5
20260507013603 59 184 1.0 7.0 0.00 0.34 0.34 98 1004.6
20260507013003 59 184 1.0 7.0 0.00 0.34 0.34 98 1004.5
20260507012404 59 184 1.0 7.0 0.00 0.34 0.34 98 1004.6
20260507011804 59 184 1.0 6.0 0.00 0.34 0.34 98 1004.5
20260507011203 59 184 0.0 6.0 0.00 0.34 0.34 98 1004.7
20260507010603 59 184 1.0 8.0 0.00 0.34 0.34 98 1004.5
20260507010004 59 184 1.0 8.0 0.00 0.34 0.34 98 1004.7
20260507005403 59 184 1.0 6.0 0.00 0.34 0.34 98 1004.5
20260507004803 59 184 1.0 8.0 0.00 0.34 0.34 98 1004.5